Nome, AK

12:20 AM AKST on February 24, 2017 (GMT -0900)
Nome

Weather History for PAOM - April, 2013

Change the Weather History Date:

Monday, April 15, 2013

  Actual Average Record
Temperature  
Mean Temperature 8 °F 20 °F  
Max Temperature 21 °F 27 °F 54 °F (1940)
Min Temperature -6 °F 13 °F -24 °F (1924)
Degree Days  
Heating Degree Days 57 45  
Month to date heating degree days 815 731  
Since 1 July heating degree days 12104 11709  
Cooling Degree Days 0    
Month to date cooling degree days 0  
Year to date cooling degree days 0  
Moisture  
Dew Point 0 °F    
Average Humidity 0    
Maximum Humidity 0    
Minimum Humidity 0    
Precipitation  
Precipitation 0.00 in 0.03 in 0.40 in (1936)
Month to date precipitation 0.25 0.35  
Year to date precipitation 2.41 2.87  
Snow  
Snow 0.00 in 0.30 in 4.10 in (1936)
Month to date snowfall 3.9 4.2  
Since 1 July snowfall 54.3 69.8  
Snow Depth 21.00 in    
Sea Level Pressure  
Sea Level Pressure 30.77 in    
Wind  
Wind Speed 1 mph (NNW)    
Max Wind Speed 6 mph    
Max Gust Speed 7 mph    
Visibility 10 miles    
Events      
T = Trace of Precipitation, MM = Missing Value Source: NWS Daily Summary

Daily Weather History Graph

Daily Weather History Graph

Search for Another Location

Airport or City:

Trip Planner

Search our weather history database for the weather conditions in past years. The results will help you decide how hot, cold, wet, or windy it might be!

Date:

Astronomy

Apr. 15, 2013 Rise Set
Actual Time 7:26 AM AKDT 10:38 PM AKDT
Civil Twilight 6:29 AM AKDT 11:36 PM AKDT
Nautical Twilight 5:05 AM AKDT 1:03 AM AKDT
Astronomical Twilight 3:34 AM AKDT Sun does not rise
Moon 9:48 AM AKDT (4/15) 4:15 AM AKDT (4/15)
Length of Visible Light 17h 06m
Length of Day
15h 12m
Waxing Crescent, 26% of the Moon is Illuminated
Apr 15
Waxing Crescent
Apr 18
First Quarter
Apr 25
Full
May 2
Last Quarter
May 9
New

Hourly Weather History & Observations

Time (AKDT) Temp. Windchill Dew Point Humidity Pressure Visibility Wind Dir Wind Speed Gust Speed Precip Events Conditions
12:53 AM 6.1 °F - 1.0 °F 80% 30.82 in 10.0 mi Calm Calm - N/A   Clear
1:53 AM 3.9 °F - -2.0 °F 76% 30.82 in 10.0 mi Calm Calm - N/A   Clear
2:53 AM 1.0 °F - -5.1 °F 75% 30.83 in 10.0 mi Calm Calm - N/A   Clear
3:53 AM -0.0 °F - -5.1 °F 79% 30.82 in 10.0 mi Calm Calm - N/A   Clear
4:53 AM -5.1 °F -13.6 °F -9.9 °F 80% 30.82 in 10.0 mi NNW 3.5 mph - N/A   Clear
5:53 AM -0.9 °F - -7.1 °F 75% 30.82 in 10.0 mi Calm Calm - N/A   Clear
6:53 AM -5.1 °F -15.8 °F -9.0 °F 83% 30.82 in 10.0 mi NE 4.6 mph - N/A   Clear
7:53 AM -5.1 °F - -8.0 °F 87% 30.81 in 10.0 mi Calm Calm - N/A   Clear
8:53 AM -2.9 °F - -8.0 °F 79% 30.81 in 10.0 mi Calm Calm - N/A   Clear
9:53 AM 1.9 °F - -4.0 °F 76% 30.79 in 10.0 mi Calm Calm - N/A   Partly Cloudy
10:53 AM 7.0 °F - -0.9 °F 70% 30.80 in 10.0 mi Calm Calm - N/A   Partly Cloudy
11:53 AM 10.0 °F - -0.9 °F 61% 30.80 in 10.0 mi Calm Calm - N/A   Partly Cloudy
12:53 PM 15.1 °F - 6.1 °F 68% 30.80 in 10.0 mi Calm Calm - N/A   Partly Cloudy
1:53 PM 17.1 °F - 8.1 °F 68% 30.79 in 10.0 mi Calm Calm - N/A   Partly Cloudy
2:53 PM 18.0 °F - 7.0 °F 62% 30.78 in 10.0 mi Calm Calm - N/A   Partly Cloudy
3:53 PM 18.0 °F - 9.0 °F 68% 30.76 in 10.0 mi Calm Calm - N/A   Scattered Clouds
4:53 PM 19.0 °F 13.9 °F 10.0 °F 68% 30.74 in 10.0 mi West 3.5 mph - N/A   Clear
5:53 PM 19.0 °F - 6.1 °F 57% 30.72 in 10.0 mi Calm Calm - N/A   Clear
6:53 PM 19.0 °F - 8.1 °F 62% 30.71 in 10.0 mi Calm Calm - N/A   Clear
7:53 PM 18.0 °F - 7.0 °F 62% 30.70 in 10.0 mi Calm Calm - N/A   Clear
8:53 PM 15.1 °F 7.7 °F 7.0 °F 70% 30.69 in 10.0 mi NW 4.6 mph - N/A   Clear
9:53 PM 12.0 °F - 3.9 °F 70% 30.67 in 10.0 mi Calm Calm - N/A   Clear
10:53 PM 5.0 °F -2.1 °F 1.0 °F 84% 30.66 in 10.0 mi NNW 3.5 mph - N/A   Clear
11:53 PM -0.0 °F - -5.1 °F 79% 30.66 in 10.0 mi Calm Calm - N/A   Clear